Starlink 32454

operational
NORAD ID: 62142 Int'l Des: 2024-224 Owner: SPXS Country: US Constellation: starlink
LEOCIRCULAR

Über Starlink 32454

Beschreibung wird geladen...

Live-Position

3D-Globus wird geladen...

Nächste Überflüge

Höhenverlauf

Altitude vs Time

uPlot chart will show altitude changes over time

Zweizeiliger Elementsatz

1 62142U 24224D 25258.19698288 .00054203 00000-0 19605-2 0 9999
2 62142 43.0092 76.7232 0000190 273.5492 86.5338 15.27652024 45550
Epoch: 15. Sept. 2025 • Age: 20 hours

Aktueller Status

Höhe 481.8 km
Geschwindigkeit 7.63 km/s
Subsatellitenpunkt 5.08°N, 64.72°E
Startdatum 30. Nov. 2024
Alter 0.7 years
Typ internet

Technische Details

Klassifizierung Payload
Masse 730.00 kg
Trockenmasse 700.00 kg
Gesamtmasse 730.00 kg
Länge 0.30 m
Durchmesser 4.10 m
Spannweite 29.00 m
Form Box + pan
Hersteller SPXS
Bus-Typ Starlink V2M
Phasenstatus In Orbit
Besitzer/Staat SPXS/US

Große Konstellationen

Loading constellations...